SCP
0 0 0 0 0 0 0 -0 -0 -0 0 0 0 -0 0 -0 -0 0 0 -0 0 0 0 0 -0 -0 -0 -0 -0 0 -0 -0 -0 -0 -0 -0 -0 -0 -0 -0 -0 -0 -0 -0 -0 -0 -0 -0 -0
0 0 0 0 0 0 -0 0 -0 0 -0 0 0 0 -0 -0 -0 -0 0 0 0 0 0 0 -0 -0 -0 -0 -0 -0 0 -0 -0 -0 -0 -0 -0 -0 -0 -0 -0 -0 -0 -0 -0 -0 -0 -0 -0
-0 0 0 0 0 0 -0 0 -0 -0 -0 0 0 0 -0 -0 -0 0 -0 -0 0 0 0 0 -0 -0 -0 -0 -0 -0 0 0 -0 -0 -0 -0 -0 -0 -0 -0 -0 -0 -0 -0 -0 -0 -0 -0 -0
0 0 0 0 0 0 -0 0 0 -0 0 0 0 -0 -0 -0 -0 -0 -0 0 0 0 0 0 -0 0 0 -0 -0 0 0 0 0 -0 -0 -0 -0 -0 -0 -0 -0 -0 -0 -0 -0 -0 -0 -0 -0
0 0 0 0 0 0 0 0 0 0 0 0 0 0 0 0 -0 0 -0 0 0 0 0 0 0 0 0 0 -0 0 0 0 0 0 -0 -0 -0 -0 -0 -0 -0 -0 -0 -0 -0 -0 -0 -0 -0
0 0 0 0 0 0 0 0 0 0 0 0 0 0 0 0 0 0 0 0 0 0 0 0 0 0 0 0 0 0 0 0 0 0 0 -0 -0 -0 -0 0 0 -0 -0 -0 -0 -0 -0 -0 -0
0 0 0 0 0 0 0 0 0 0 0 0 -0 0 0 -0 0 0 0 0 0 0 0 0 0 0 0 0 0 -0 -0 0 0 0 0 0 0 -0 -0 0 0 -0 -0 -0 -0 -0 -0 -0 -0
0 0 0 0 0 0 0 0 0 0 0 0 0 0 0 -0 0 0 -0 0 0 0 0 0 0 0 0 0 -0 -0 -0 -0 0 0 0 0 0 0 -0 -0 -0 -0 -0 -0 -0 -0 -0 -0 0
0 0 0 0 0 0 0 0 0 0 0 0 0 0 0 -0 0 0 0 0 0 0 0 -0 0 0 0 0 0 0 0 0 0 0 -0 0 0 0 -0 -0 -0 -0 -0 -0 -0 -0 0 0 0
0 0 0 0 0 0 0 0 0 0 0 0 0 0 0 -0 -0 -0 0 0 0 0 0 0 -0 -0 0 0 0 -0 0 0 0 0 0 0 0 0 -0 -0 -0 -0 -0 0 0 0 0 0 0
0 0 0 0 0 0 0 0 0 0 0 0 0 0 0 0 0 0 0 0 -0 0 0 0 0 -0 -0 -0 -0 -0 0 0 0 -0 -0 -0 -0 -0 -0 0 0 0 0 0 0 0 0 0 0
0 0 0 0 0 0 0 0 0 0 0 0 0 0 0 0 0 0 -0 -0 0 0 -0 -0 -0 -0 -0 0 0 0 0 0 0 0 -0 -0 -0 -0 0 0 0 0 0 0 0 0 0 0 0
0 0 0 0 0 0 0 0 0 0 0 0 0 0 0 0 0 0 0 0 0 0 0 -0 -0 -0 -0 -0 0 0 0 0 0 0 0 -0 -0 -0 0 0 0 0 0 0 0 0 0 0 0
0 -0 0 0 0 0 0 0 0 0 0 0 0 0 0 0 0 0 0 0 0 0 0 0 -0 -0 -0 -0 -0 0 0 0 0 0 0 0 0 0 0 0 0 0 0 0 0 0 0 0 0
0 0 -0 0 0 0 0 0 0 0 0 0 0 0 0 0 0 0 0 0 0 0 0 0 0 -0 -0 -0 -0 0 0 0 0 0 0 0 0 0 0 0 0 0 0 0 0 0 0 0 0
0 0 0 0 0 0 0 0 -0 0 0 0 0 0 0 0 0 0 0 0 0 0 0 0 0 0 0 0 0 0 0 0 0 0 0 0 0 0 0 0 0 0 0 0 0 0 0 0 0
0 0 0 0 0 0 0 -0 0 0 0 0 0 0 0 0 0 0 0 0 0 0 0 0 0 0 0 0 0 0 0 0 0 0 0 0 0 0 0 0 0 0 0 0 0 0 0 0 0
0 0 0 0 0 0 0 0 0 0 0 0 0 0 0 0 0 0 0 0 0 0 0 0 0 0 0 0 0 0 0 0 0 0 0 0 0 0 0 0 0 0 0 0 0 0 0 0 0
0 0 0 0 0 0 0 0 0 0 0 0 0 0 0 0 0 0 0 0 0 0 0 0 0 0 0 0 0 0 0 0 0 0 0 0 0 0 0 0 0 0 0 0 0 0 0 0 0
0 0 0 0 0 0 0 0 0 0 0 0 0 0 0 0 0 0 0 0 0 0 0 0 0 0 0 0 0 0 0 0 0 0 0 0 0 0 0 0 0 0 0 0 0 0 0 0 0
0 0 0 0 0 0 0 0 0 0 0 0 0 0 0 0 0 0 0 0 0 0 0 0 0 0 0 0 0 0 0 0 0 0 0 0 0 0 0 0 0 0 0 0 0 0 0 0 0
0 0 0 0 0 0 0 0 -0 -0 -0 0 0 0 -0 -0 0 0 -0 0 0 0 0 0 0 0 0 0 0 0 0 0 0 0 0 0 0 0 0 0 0 0 0 0 0 0 0 0 0
0 0 0 0 0 0 0 0 -0 0 0 0 0 0 -0 0 0 0 0 0 0 0 0 0 0 0 0 0 0 0 0 0 0 0 0 0 0 0 0 0 0 0 0 0 0 0 0 0 0
0 0 0 0 0 0 0 0 -0 0 0 0 0 0 0 0 0 0 0 0 0 0 0 0 0 0 0 0 0 0 0 0 0 0 0 0 0 0 0 0 0 0 0 0 0 0 0 0 0
0 0 0 0 0 0 0 0 0 -0 0 0 0 0 0 0 0 0 0 0 0 0 0 0 0 0 0 0 0 0 0 0 0 0 0 0 0 0 0 0 0 0 0 0 0 0 0 0 0
0 0 0 0 0 0 0 0 -0 -0 0 0 0 0 0 0 0 0 0 0 0 0 0 0 0 0 0 0 0 0 0 0 0 0 0 0 0 0 0 0 0 0 0 0 0 0 0 0 0
0 0 0 0 0 0 0 0 0 0 0 -0 -0 0 0 0 0 0 0 0 0 0 0 0 0 0 0 0 0 0 0 0 0 0 0 0 0 0 0 0 0 0 0 0 0 0 0 0 0
0 0 0 0 0 0 0 0 0 0 0 -0 0 0 0 0 0 0 0 0 0 0 0 0 0 0 0 0 0 0 0 0 0 0 0 0 0 0 0 0 0 0 0 0 0 0 0 0 0
0 0 0 0 0 0 0 0 0 0 0 0 0 0 0 0 0 0 0 0 0 0 0 0 0 0 0 0 0 0 0 0 0 0 0 0 0 0 0 0 0 0 0 0 0 0 0 0 0
0 0 0 0 0 0 0 -0 0 0 0 0 0 0 0 0 0 0 0 0 0 0 0 0 0 0 0 0 0 0 0 0 0 0 0 0 0 0 0 0 0 0 0 0 0 0 0 0 0
Wind_Speed_500mb
25 23 23 8 7 9 3 6 3 8 4 2 12 6 13 9 5 6 30 24 19 21 18 21 25 26 25 26 27 28 26 23 19 18 17 14 13 17 18 21 25 28 29 34 29 30 31 35 36
27 22 11 5 8 5 7 5 9 2 26 37 25 15 11 3 6 18 40 26 17 18 19 22 26 28 28 26 26 27 23 20 16 14 14 11 12 17 22 25 28 30 30 31 26 31 30 29 34
24 20 6 7 7 5 8 7 9 17 37 4 11 15 7 9 13 42 30 27 21 20 21 22 24 29 29 26 25 23 21 17 17 13 12 12 16 24 25 26 29 29 30 27 27 28 31 32 33
21 7 7 6 4 7 8 13 17 23 10 5 26 15 11 2 27 26 33 22 21 24 24 23 24 29 31 29 27 24 21 20 21 19 12 13 21 26 26 27 28 27 28 27 25 27 30 32 32
16 5 6 4 7 5 5 26 26 9 10 15 7 9 10 23 12 26 29 20 22 27 27 25 25 29 36 36 29 27 22 21 18 18 15 15 19 24 26 25 26 25 25 24 22 23 27 27 27
8 5 6 3 6 5 4 29 20 10 16 18 15 17 12 24 18 29 26 23 22 26 30 29 26 27 31 35 37 26 26 24 20 18 16 17 20 21 23 24 25 25 25 24 21 18 21 22 22
8 6 5 3 4 2 8 19 12 18 18 13 28 9 10 32 28 31 25 22 24 28 29 29 27 26 30 32 31 29 29 28 22 20 20 19 17 18 23 21 21 22 23 22 20 17 15 18 20
11 5 3 3 4 6 6 15 14 19 8 26 24 13 12 44 37 36 28 24 27 27 28 28 26 26 25 24 25 25 27 26 23 20 19 20 16 13 19 18 18 19 19 18 17 15 11 12 16
12 4 4 8 10 2 4 4 18 9 32 15 19 11 11 50 47 44 40 31 34 35 31 31 29 28 24 23 23 23 22 22 20 19 18 15 13 11 14 17 15 15 15 15 14 13 10 6 9
8 2 8 5 8 5 7 7 21 13 20 9 17 20 25 54 56 55 51 45 40 41 40 34 32 31 31 29 26 26 26 25 23 21 19 17 14 14 16 17 16 15 14 13 12 11 9 5 3
13 8 7 10 8 1 2 3 7 22 8 23 36 34 49 59 61 57 51 46 41 39 39 37 32 29 26 24 26 25 24 22 21 20 19 19 17 16 18 18 16 15 13 12 12 10 9 8 7
15 19 18 13 11 9 0 3 7 29 9 21 30 35 52 65 67 64 56 51 48 47 42 40 37 32 31 30 27 25 25 24 23 22 21 19 18 18 19 20 19 16 14 13 12 11 11 11 11
8 20 32 27 29 25 21 13 10 21 17 14 29 46 54 63 64 61 55 50 49 49 46 46 43 40 36 35 32 29 26 24 23 21 21 20 19 18 19 20 19 19 17 15 14 12 11 11 11
23 23 27 26 32 24 10 15 7 8 24 18 37 47 57 61 60 64 62 59 55 49 48 48 47 43 40 38 37 33 30 26 25 24 22 22 21 21 19 20 19 20 17 16 16 16 15 15 15
16 12 2 15 18 13 15 13 17 31 22 31 43 51 58 63 65 66 61 63 59 55 49 50 49 47 45 41 39 37 33 32 29 26 26 24 23 21 20 19 19 18 19 19 20 20 20 20 20
11 3 9 7 9 15 16 24 20 41 31 39 48 54 60 63 63 64 66 65 62 59 58 54 52 51 47 46 44 40 38 38 35 32 30 28 26 24 23 23 22 22 23 23 25 24 25 25 24
8 9 9 6 19 9 14 12 28 30 42 48 55 61 66 68 68 67 67 66 67 64 63 59 58 56 53 49 48 44 42 43 41 39 37 34 31 31 31 28 26 27 27 28 28 30 29 26 26
14 19 10 14 16 13 13 25 14 16 25 53 57 66 69 73 72 64 64 69 69 70 68 65 63 61 57 55 53 52 51 51 47 48 45 41 39 38 37 36 33 33 34 33 33 33 31 28 24
16 11 27 18 12 10 25 33 25 50 25 37 62 56 69 75 66 65 67 67 73 73 74 72 71 70 66 68 65 64 64 60 57 55 53 50 47 44 44 43 41 40 42 39 35 32 31 34 30
17 28 28 8 12 12 12 30 25 25 34 57 52 55 71 73 74 71 67 70 75 73 76 76 76 76 73 73 71 71 67 68 63 58 58 57 55 52 50 49 49 49 49 47 45 42 39 42 36
31 37 24 13 5 2 4 28 24 16 56 51 61 66 65 67 71 80 79 76 72 77 77 77 78 79 78 73 71 70 71 72 70 72 68 64 60 57 57 55 56 55 56 55 51 49 47 50 41
40 19 17 19 13 14 13 14 13 14 35 28 65 80 89 85 80 72 81 79 79 73 71 73 75 79 77 73 75 74 73 76 70 71 69 67 64 62 61 61 59 60 61 61 56 52 53 54 49
29 12 14 16 18 5 9 8 12 5 16 18 48 77 90 90 87 88 80 82 74 68 77 72 72 73 75 72 74 73 74 72 68 69 68 68 66 67 67 65 64 64 63 64 60 57 60 59 61
8 15 6 8 6 14 32 22 17 17 17 15 43 68 85 97 99 91 89 80 76 65 73 78 76 70 73 72 73 74 72 71 69 68 66 66 65 66 68 69 69 67 67 67 64 61 63 64 64
27 28 8 13 9 14 18 16 37 12 19 24 30 56 61 59 66 81 94 82 80 74 68 74 80 74 71 70 71 71 70 70 70 68 66 64 63 65 65 63 64 66 68 68 67 67 66 70 70
55 40 13 13 18 15 6 21 13 22 48 54 47 36 32 49 55 57 62 79 73 70 66 66 78 80 76 73 70 69 68 69 70 70 69 65 66 65 61 59 57 59 61 65 69 71 73 73 74
40 30 18 11 3 6 10 15 15 21 22 29 44 34 29 36 46 45 42 60 68 65 65 66 69 72 79 79 75 75 73 71 70 69 67 68 68 64 60 56 54 53 55 58 62 68 72 76 75
27 48 25 6 12 9 10 12 24 21 35 22 20 57 47 40 36 34 35 39 44 48 59 64 62 67 67 70 74 75 74 72 69 67 67 68 65 61 58 56 56 54 53 52 55 57 58 62 70
9 34 10 8 8 11 6 17 13 33 20 25 33 65 74 52 44 39 41 41 38 36 36 45 56 59 60 60 61 63 64 65 66 68 67 66 64 63 59 56 57 56 55 50 53 56 61 69 67
54 35 51 27 15 8 2 28 8 18 14 36 40 52 80 59 52 43 38 37 40 38 35 35 41 47 49 50 53 55 56 59 63 65 66 66 67 65 62 55 58 51 50 52 59 57 60 59 57
Wind_Direction_500mb
319 336 337 340 46 64 167 239 295 137 81 56 136 162 144 73 142 201 152 152 162 178 172 162 162 159 150 141 139 136 133 127 124 124 121 109 95 99 102 102 101 98 98 98 98 87 79 78 83
321 339 347 59 84 58 268 264 166 203 132 113 96 97 60 86 148 148 153 157 171 189 181 163 162 162 155 149 146 142 136 131 132 131 120 113 108 108 109 107 103 102 101 99 94 84 75 81 84
321 335 346 85 107 172 198 212 167 132 146 137 113 81 92 147 165 152 158 160 174 188 181 170 164 165 160 154 151 146 140 133 139 145 130 118 107 107 109 103 99 100 103 103 92 84 86 95 83
330 332 47 82 222 244 200 179 164 141 151 162 125 74 92 107 147 154 155 166 184 189 180 174 165 169 163 149 147 151 145 143 135 140 135 115 111 110 104 99 101 102 103 105 101 100 93 89 85
320 350 44 21 280 264 240 165 162 125 131 137 131 155 132 168 175 166 159 168 188 182 176 165 162 172 173 165 157 158 163 154 135 144 140 117 111 120 109 107 105 106 109 112 108 96 90 89 93
332 45 53 233 280 348 92 164 159 132 152 150 115 125 154 183 187 173 161 158 177 182 170 162 159 166 178 183 183 177 163 164 155 153 151 126 123 129 126 121 118 119 119 117 114 102 96 94 96
17 59 228 222 285 105 188 188 188 157 156 186 150 106 176 181 189 181 169 166 173 177 169 165 160 164 170 181 194 172 163 171 172 168 160 144 146 140 138 128 125 119 116 120 123 118 113 109 100
8 65 269 272 203 230 148 160 189 158 172 154 158 169 186 184 181 180 178 177 177 179 174 172 170 169 171 171 168 166 167 171 175 179 177 170 157 144 142 138 129 122 121 125 131 135 130 112 101
2 25 234 219 172 210 350 136 156 162 151 171 195 213 244 173 176 181 182 184 184 183 184 180 177 174 176 174 168 165 166 171 178 180 180 179 183 178 161 153 142 135 138 143 148 152 148 126 109
40 167 239 243 172 158 305 181 161 154 161 205 197 186 180 176 181 188 191 188 190 190 188 191 186 183 180 176 176 173 173 174 179 181 183 186 191 191 179 171 164 159 160 162 164 168 161 163 162
112 241 339 294 268 67 346 234 186 155 224 207 195 180 180 183 188 195 201 202 195 191 194 195 197 196 188 186 183 184 182 184 186 185 188 188 192 192 189 186 183 180 179 178 185 195 201 201 223
114 270 283 303 319 282 292 281 230 187 213 228 210 201 186 191 196 198 203 205 201 200 198 199 198 200 197 196 198 195 195 191 189 187 189 191 194 194 192 194 196 197 199 201 207 212 218 222 225
203 208 281 299 291 290 282 278 245 226 237 230 198 189 195 199 203 207 210 209 206 206 202 205 204 203 204 204 205 207 206 202 196 197 195 198 200 202 204 204 208 212 214 218 224 231 235 240 247
217 177 229 294 304 294 259 267 228 258 223 210 194 197 201 205 210 209 211 213 213 212 211 210 209 210 211 214 214 215 215 213 213 208 207 205 206 207 210 217 220 224 228 232 236 238 242 245 249
167 153 223 232 272 246 229 266 222 232 218 206 198 203 205 211 211 217 218 216 218 217 215 217 216 215 216 216 218 219 223 224 227 224 218 217 219 218 220 226 233 235 238 244 246 249 250 249 249
153 187 184 191 187 232 168 257 251 234 210 213 205 207 211 215 220 221 222 224 224 224 221 220 222 221 222 220 221 224 225 230 234 231 231 230 229 232 234 236 238 242 247 251 253 254 256 260 258
235 215 205 265 197 208 200 248 240 249 221 221 221 216 218 221 224 226 226 226 228 228 227 227 227 227 228 227 225 228 231 235 236 236 235 235 236 237 240 244 244 248 253 258 259 260 260 261 265
187 210 193 203 190 182 215 248 262 253 222 225 228 225 223 226 228 230 230 230 229 228 231 231 233 233 234 235 235 234 235 237 239 239 240 240 240 240 245 247 247 250 255 259 263 265 261 267 270
170 221 215 219 222 160 217 247 240 252 249 241 234 232 229 232 234 234 233 233 231 232 230 230 231 234 235 236 234 236 237 238 240 242 241 242 244 245 248 252 253 255 258 264 268 269 268 270 264
189 212 219 222 171 155 252 260 249 234 242 237 234 234 237 237 239 238 238 235 233 231 232 231 231 233 234 237 237 240 243 243 243 248 249 247 246 246 248 253 255 257 259 259 258 260 269 264 267
212 209 203 203 131 35 11 269 254 242 246 244 243 247 249 246 247 242 239 236 234 232 231 233 232 233 232 236 238 241 246 248 246 245 245 246 247 249 251 254 255 257 258 260 260 260 260 261 267
216 185 194 196 144 221 171 267 239 231 243 218 238 245 248 250 248 246 237 238 235 234 235 235 236 234 234 234 238 240 243 247 250 251 252 252 251 251 251 254 256 257 257 259 261 260 259 257 256
234 148 169 195 193 146 207 257 255 188 251 234 237 238 243 245 244 240 236 236 238 237 238 237 236 237 238 236 240 244 247 252 257 257 255 254 254 254 256 256 257 257 258 259 259 259 255 254 252
133 139 80 62 206 220 210 210 223 212 211 226 239 242 243 244 244 242 238 234 236 239 240 237 238 239 240 241 241 246 250 251 255 255 255 256 256 255 255 257 259 261 261 260 261 262 259 257 255
180 161 184 197 211 228 193 209 243 209 221 219 226 243 248 243 246 245 237 233 233 236 239 238 237 238 241 243 244 247 252 253 256 258 259 260 262 262 260 260 262 263 264 265 264 262 261 258 256
193 190 174 192 196 212 87 232 241 225 236 240 239 246 257 236 236 239 233 228 230 233 237 238 238 240 241 243 246 249 253 256 258 260 261 264 268 270 270 269 268 269 269 270 269 267 266 265 263
194 201 184 89 23 84 205 282 288 254 261 250 234 226 234 229 224 224 222 218 226 231 237 237 239 241 244 247 248 250 253 256 260 263 267 268 270 272 274 275 274 272 272 270 272 272 272 271 270
184 191 196 182 158 231 241 278 233 210 221 232 216 225 221 209 207 203 202 206 216 227 232 231 237 239 245 248 248 249 253 258 261 266 266 269 272 273 273 276 277 277 275 276 276 273 274 273 271
172 198 179 171 168 211 239 251 205 224 226 226 224 218 214 205 205 209 209 212 220 224 224 223 230 236 240 244 246 249 252 257 260 262 265 267 269 270 271 273 273 273 275 273 272 271 273 273 276
199 193 193 195 201 223 240 251 150 245 282 245 228 213 210 211 206 206 208 208 213 216 219 221 226 232 236 239 242 245 248 251 253 257 262 265 268 270 269 267 265 267 269 272 267 268 272 273 276
Wind_Speed_850mb
25 23 23 8 7 9 3 6 3 8 4 2 12 6 13 9 5 6 30 24 19 21 18 21 25 26 25 26 27 28 26 23 19 18 17 14 13 17 18 21 25 28 29 34 29 30 31 35 36
27 22 11 5 8 5 7 5 9 2 26 37 25 15 11 3 6 18 40 26 17 18 19 22 26 28 28 26 26 27 23 20 16 14 14 11 12 17 22 25 28 30 30 31 26 31 30 29 34
24 20 6 7 7 5 8 7 9 17 37 4 11 15 7 9 13 42 30 27 21 20 21 22 24 29 29 26 25 23 21 17 17 13 12 12 16 24 25 26 29 29 30 27 27 28 31 32 33
21 7 7 6 4 7 8 13 17 23 10 5 26 15 11 2 27 26 33 22 21 24 24 23 24 29 31 29 27 24 21 20 21 19 12 13 21 26 26 27 28 27 28 27 25 27 30 32 32
16 5 6 4 7 5 5 26 26 9 10 15 7 9 10 23 12 26 29 20 22 27 27 25 25 29 36 36 29 27 22 21 18 18 15 15 19 24 26 25 26 25 25 24 22 23 27 27 27
8 5 6 3 6 5 4 29 20 10 16 18 15 17 12 24 18 29 26 23 22 26 30 29 26 27 31 35 37 26 26 24 20 18 16 17 20 21 23 24 25 25 25 24 21 18 21 22 22
8 6 5 3 4 2 8 19 12 18 18 13 28 9 10 32 28 31 25 22 24 28 29 29 27 26 30 32 31 29 29 28 22 20 20 19 17 18 23 21 21 22 23 22 20 17 15 18 20
11 5 3 3 4 6 6 15 14 19 8 26 24 13 12 44 37 36 28 24 27 27 28 28 26 26 25 24 25 25 27 26 23 20 19 20 16 13 19 18 18 19 19 18 17 15 11 12 16
12 4 4 8 10 2 4 4 18 9 32 15 19 11 11 50 47 44 40 31 34 35 31 31 29 28 24 23 23 23 22 22 20 19 18 15 13 11 14 17 15 15 15 15 14 13 10 6 9
8 2 8 5 8 5 7 7 21 13 20 9 17 20 25 54 56 55 51 45 40 41 40 34 32 31 31 29 26 26 26 25 23 21 19 17 14 14 16 17 16 15 14 13 12 11 9 5 3
13 8 7 10 8 1 2 3 7 22 8 23 36 34 49 59 61 57 51 46 41 39 39 37 32 29 26 24 26 25 24 22 21 20 19 19 17 16 18 18 16 15 13 12 12 10 9 8 7
15 19 18 13 11 9 0 3 7 29 9 21 30 35 52 65 67 64 56 51 48 47 42 40 37 32 31 30 27 25 25 24 23 22 21 19 18 18 19 20 19 16 14 13 12 11 11 11 11
8 20 32 27 29 25 21 13 10 21 17 14 29 46 54 63 64 61 55 50 49 49 46 46 43 40 36 35 32 29 26 24 23 21 21 20 19 18 19 20 19 19 17 15 14 12 11 11 11
23 23 27 26 32 24 10 15 7 8 24 18 37 47 57 61 60 64 62 59 55 49 48 48 47 43 40 38 37 33 30 26 25 24 22 22 21 21 19 20 19 20 17 16 16 16 15 15 15
16 12 2 15 18 13 15 13 17 31 22 31 43 51 58 63 65 66 61 63 59 55 49 50 49 47 45 41 39 37 33 32 29 26 26 24 23 21 20 19 19 18 19 19 20 20 20 20 20
11 3 9 7 9 15 16 24 20 41 31 39 48 54 60 63 63 64 66 65 62 59 58 54 52 51 47 46 44 40 38 38 35 32 30 28 26 24 23 23 22 22 23 23 25 24 25 25 24
8 9 9 6 19 9 14 12 28 30 42 48 55 61 66 68 68 67 67 66 67 64 63 59 58 56 53 49 48 44 42 43 41 39 37 34 31 31 31 28 26 27 27 28 28 30 29 26 26
14 19 10 14 16 13 13 25 14 16 25 53 57 66 69 73 72 64 64 69 69 70 68 65 63 61 57 55 53 52 51 51 47 48 45 41 39 38 37 36 33 33 34 33 33 33 31 28 24
16 11 27 18 12 10 25 33 25 50 25 37 62 56 69 75 66 65 67 67 73 73 74 72 71 70 66 68 65 64 64 60 57 55 53 50 47 44 44 43 41 40 42 39 35 32 31 34 30
17 28 28 8 12 12 12 30 25 25 34 57 52 55 71 73 74 71 67 70 75 73 76 76 76 76 73 73 71 71 67 68 63 58 58 57 55 52 50 49 49 49 49 47 45 42 39 42 36
31 37 24 13 5 2 4 28 24 16 56 51 61 66 65 67 71 80 79 76 72 77 77 77 78 79 78 73 71 70 71 72 70 72 68 64 60 57 57 55 56 55 56 55 51 49 47 50 41
40 19 17 19 13 14 13 14 13 14 35 28 65 80 89 85 80 72 81 79 79 73 71 73 75 79 77 73 75 74 73 76 70 71 69 67 64 62 61 61 59 60 61 61 56 52 53 54 49
29 12 14 16 18 5 9 8 12 5 16 18 48 77 90 90 87 88 80 82 74 68 77 72 72 73 75 72 74 73 74 72 68 69 68 68 66 67 67 65 64 64 63 64 60 57 60 59 61
8 15 6 8 6 14 32 22 17 17 17 15 43 68 85 97 99 91 89 80 76 65 73 78 76 70 73 72 73 74 72 71 69 68 66 66 65 66 68 69 69 67 67 67 64 61 63 64 64
27 28 8 13 9 14 18 16 37 12 19 24 30 56 61 59 66 81 94 82 80 74 68 74 80 74 71 70 71 71 70 70 70 68 66 64 63 65 65 63 64 66 68 68 67 67 66 70 70
55 40 13 13 18 15 6 21 13 22 48 54 47 36 32 49 55 57 62 79 73 70 66 66 78 80 76 73 70 69 68 69 70 70 69 65 66 65 61 59 57 59 61 65 69 71 73 73 74
40 30 18 11 3 6 10 15 15 21 22 29 44 34 29 36 46 45 42 60 68 65 65 66 69 72 79 79 75 75 73 71 70 69 67 68 68 64 60 56 54 53 55 58 62 68 72 76 75
27 48 25 6 12 9 10 12 24 21 35 22 20 57 47 40 36 34 35 39 44 48 59 64 62 67 67 70 74 75 74 72 69 67 67 68 65 61 58 56 56 54 53 52 55 57 58 62 70
9 34 10 8 8 11 6 17 13 33 20 25 33 65 74 52 44 39 41 41 38 36 36 45 56 59 60 60 61 63 64 65 66 68 67 66 64 63 59 56 57 56 55 50 53 56 61 69 67
54 35 51 27 15 8 2 28 8 18 14 36 40 52 80 59 52 43 38 37 40 38 35 35 41 47 49 50 53 55 56 59 63 65 66 66 67 65 62 55 58 51 50 52 59 57 60 59 57
Wind_Direction_850mb
319 336 337 340 46 64 167 239 295 137 81 56 136 162 144 73 142 201 152 152 162 178 172 162 162 159 150 141 139 136 133 127 124 124 121 109 95 99 102 102 101 98 98 98 98 87 79 78 83
321 339 347 59 84 58 268 264 166 203 132 113 96 97 60 86 148 148 153 157 171 189 181 163 162 162 155 149 146 142 136 131 132 131 120 113 108 108 109 107 103 102 101 99 94 84 75 81 84
321 335 346 85 107 172 198 212 167 132 146 137 113 81 92 147 165 152 158 160 174 188 181 170 164 165 160 154 151 146 140 133 139 145 130 118 107 107 109 103 99 100 103 103 92 84 86 95 83
330 332 47 82 222 244 200 179 164 141 151 162 125 74 92 107 147 154 155 166 184 189 180 174 165 169 163 149 147 151 145 143 135 140 135 115 111 110 104 99 101 102 103 105 101 100 93 89 85
320 350 44 21 280 264 240 165 162 125 131 137 131 155 132 168 175 166 159 168 188 182 176 165 162 172 173 165 157 158 163 154 135 144 140 117 111 120 109 107 105 106 109 112 108 96 90 89 93
332 45 53 233 280 348 92 164 159 132 152 150 115 125 154 183 187 173 161 158 177 182 170 162 159 166 178 183 183 177 163 164 155 153 151 126 123 129 126 121 118 119 119 117 114 102 96 94 96
17 59 228 222 285 105 188 188 188 157 156 186 150 106 176 181 189 181 169 166 173 177 169 165 160 164 170 181 194 172 163 171 172 168 160 144 146 140 138 128 125 119 116 120 123 118 113 109 100
8 65 269 272 203 230 148 160 189 158 172 154 158 169 186 184 181 180 178 177 177 179 174 172 170 169 171 171 168 166 167 171 175 179 177 170 157 144 142 138 129 122 121 125 131 135 130 112 101
2 25 234 219 172 210 350 136 156 162 151 171 195 213 244 173 176 181 182 184 184 183 184 180 177 174 176 174 168 165 166 171 178 180 180 179 183 178 161 153 142 135 138 143 148 152 148 126 109
40 167 239 243 172 158 305 181 161 154 161 205 197 186 180 176 181 188 191 188 190 190 188 191 186 183 180 176 176 173 173 174 179 181 183 186 191 191 179 171 164 159 160 162 164 168 161 163 162
112 241 339 294 268 67 346 234 186 155 224 207 195 180 180 183 188 195 201 202 195 191 194 195 197 196 188 186 183 184 182 184 186 185 188 188 192 192 189 186 183 180 179 178 185 195 201 201 223
114 270 283 303 319 282 292 281 230 187 213 228 210 201 186 191 196 198 203 205 201 200 198 199 198 200 197 196 198 195 195 191 189 187 189 191 194 194 192 194 196 197 199 201 207 212 218 222 225
203 208 281 299 291 290 282 278 245 226 237 230 198 189 195 199 203 207 210 209 206 206 202 205 204 203 204 204 205 207 206 202 196 197 195 198 200 202 204 204 208 212 214 218 224 231 235 240 247
217 177 229 294 304 294 259 267 228 258 223 210 194 197 201 205 210 209 211 213 213 212 211 210 209 210 211 214 214 215 215 213 213 208 207 205 206 207 210 217 220 224 228 232 236 238 242 245 249
167 153 223 232 272 246 229 266 222 232 218 206 198 203 205 211 211 217 218 216 218 217 215 217 216 215 216 216 218 219 223 224 227 224 218 217 219 218 220 226 233 235 238 244 246 249 250 249 249
153 187 184 191 187 232 168 257 251 234 210 213 205 207 211 215 220 221 222 224 224 224 221 220 222 221 222 220 221 224 225 230 234 231 231 230 229 232 234 236 238 242 247 251 253 254 256 260 258
235 215 205 265 197 208 200 248 240 249 221 221 221 216 218 221 224 226 226 226 228 228 227 227 227 227 228 227 225 228 231 235 236 236 235 235 236 237 240 244 244 248 253 258 259 260 260 261 265
187 210 193 203 190 182 215 248 262 253 222 225 228 225 223 226 228 230 230 230 229 228 231 231 233 233 234 235 235 234 235 237 239 239 240 240 240 240 245 247 247 250 255 259 263 265 261 267 270
170 221 215 219 222 160 217 247 240 252 249 241 234 232 229 232 234 234 233 233 231 232 230 230 231 234 235 236 234 236 237 238 240 242 241 242 244 245 248 252 253 255 258 264 268 269 268 270 264
189 212 219 222 171 155 252 260 249 234 242 237 234 234 237 237 239 238 238 235 233 231 232 231 231 233 234 237 237 240 243 243 243 248 249 247 246 246 248 253 255 257 259 259 258 260 269 264 267
212 209 203 203 131 35 11 269 254 242 246 244 243 247 249 246 247 242 239 236 234 232 231 233 232 233 232 236 238 241 246 248 246 245 245 246 247 249 251 254 255 257 258 260 260 260 260 261 267
216 185 194 196 144 221 171 267 239 231 243 218 238 245 248 250 248 246 237 238 235 234 235 235 236 234 234 234 238 240 243 247 250 251 252 252 251 251 251 254 256 257 257 259 261 260 259 257 256
234 148 169 195 193 146 207 257 255 188 251 234 237 238 243 245 244 240 236 236 238 237 238 237 236 237 238 236 240 244 247 252 257 257 255 254 254 254 256 256 257 257 258 259 259 259 255 254 252
133 139 80 62 206 220 210 210 223 212 211 226 239 242 243 244 244 242 238 234 236 239 240 237 238 239 240 241 241 246 250 251 255 255 255 256 256 255 255 257 259 261 261 260 261 262 259 257 255
180 161 184 197 211 228 193 209 243 209 221 219 226 243 248 243 246 245 237 233 233 236 239 238 237 238 241 243 244 247 252 253 256 258 259 260 262 262 260 260 262 263 264 265 264 262 261 258 256
193 190 174 192 196 212 87 232 241 225 236 240 239 246 257 236 236 239 233 228 230 233 237 238 238 240 241 243 246 249 253 256 258 260 261 264 268 270 270 269 268 269 269 270 269 267 266 265 263
194 201 184 89 23 84 205 282 288 254 261 250 234 226 234 229 224 224 222 218 226 231 237 237 239 241 244 247 248 250 253 256 260 263 267 268 270 272 274 275 274 272 272 270 272 272 272 271 270
184 191 196 182 158 231 241 278 233 210 221 232 216 225 221 209 207 203 202 206 216 227 232 231 237 239 245 248 248 249 253 258 261 266 266 269 272 273 273 276 277 277 275 276 276 273 274 273 271
172 198 179 171 168 211 239 251 205 224 226 226 224 218 214 205 205 209 209 212 220 224 224 223 230 236 240 244 246 249 252 257 260 262 265 267 269 270 271 273 273 273 275 273 272 271 273 273 276
199 193 193 195 201 223 240 251 150 245 282 245 228 213 210 211 206 206 208 208 213 216 219 221 226 232 236 239 242 245 248 251 253 257 262 265 268 270 269 267 265 267 269 272 267 268 272 273 276